Location: Derby
(52.9213°N, 1.4761°W)
Time: 16:45:11
(UTC+01:00)

Vanguard 1 - Pass Details

Date: 23 May 2025
Orbit: 649 x 3822 km, 34.3° (Epoch: 14 June)

Event Time Altitude Azimuth Distance (km) Brightness Sun altitude
Rises 21:42:17 0° 263° (W) 6,561 14.9 -4.5°
Reaches altitude 10° 21:48:33 10° 251° (WSW) 4,914 14.0 -5.2°
Maximum altitude 21:56:57 21° 210° (SSW) 3,171 12.5 -6.1°
Drops below altitude 10° 22:02:47 10° 165° (SSE) 3,246 12.2 -6.7°
Enters shadow 22:04:06 - 157° (SSE) 3,465 12.3 -6.8°
Sets 22:05:52 0° 149° (SSE) 3,848 - -7.0°
